| time (UTC) | temp F | wind direction | speed MPH | gust MPH | rain 1hr in | rain 24hr in | rain mn in | humidity % | barometer mb |
| 20260507070020 | 58 | 283 | 1.0 | 8.0 | 0.00 | 0.02 | 0.01 | 67 | 1018.7 |
| 20260507064513 | 57 | 43 | 1.0 | 4.0 | 0.00 | 0.02 | 0.01 | 70 | 1018.9 |
| 20260507063007 | 56 | 352 | 1.0 | 7.0 | 0.00 | 0.02 | 0.01 | 74 | 1018.8 |
| 20260507061502 | 55 | 353 | 1.0 | 5.0 | 0.00 | 0.02 | 0.01 | 81 | 1018.8 |
| 20260507060100 | 54 | 285 | 2.0 | 5.0 | 0.00 | 0.02 | 0.01 | 81 | 1018.8 |
| 20260507054558 | 53 | 288 | 0.0 | 3.0 | 0.00 | 0.02 | 0.01 | 80 | 1018.7 |
| 20260507053107 | 53 | 307 | 0.0 | 3.0 | 0.00 | 0.02 | 0.01 | 83 | 1018.5 |
| 20260507051550 | 52 | 295 | 0.0 | 3.0 | 0.00 | 0.02 | 0.01 | 88 | 1018.2 |
| 20260507050046 | 51 | 299 | 0.0 | 2.0 | 0.00 | 0.02 | 0.01 | 91 | 1018.2 |
| 20260507044556 | 49 | 18 | 0.0 | 2.0 | 0.00 | 0.02 | 0.01 | 94 | 1018.1 |
| 20260507043038 | 48 | 342 | 0.0 | 2.0 | 0.00 | 0.02 | 0.01 | 95 | 1018.1 |
| 20260507041544 | 48 | 58 | 0.0 | 2.0 | 0.00 | 0.02 | 0.01 | 95 | 1017.9 |
| 20260507040042 | 47 | 31 | 0.0 | 2.0 | 0.00 | 0.02 | 0.01 | 95 | 1017.8 |
| 20260507034541 | 47 | 100 | 0.0 | 8.0 | 0.00 | 0.02 | 0.01 | 95 | 1017.6 |
| 20260507033044 | 46 | 76 | 0.0 | 1.0 | 0.01 | 0.02 | 0.01 | 95 | 1017.6 |
| 20260507031550 | 46 | 92 | 0.0 | 1.0 | 0.01 | 0.02 | 0.01 | 95 | 1017.4 |
| 20260507030038 | 46 | 92 | 0.0 | 1.0 | 0.01 | 0.02 | 0.01 | 95 | 1017.2 |
| 20260507024534 | 46 | 92 | 0.0 | 1.0 | 0.01 | 0.02 | 0.01 | 95 | 1017.3 |
| 20260507023031 | 46 | 45 | 0.0 | 2.0 | 0.00 | 0.01 | 0.00 | 95 | 1017.2 |
| 20260507021533 | 46 | 40 | 0.0 | 1.0 | 0.00 | 0.01 | 0.00 | 95 | 1017.2 |
| 20260507020029 | 46 | 40 | 0.0 | 0.0 | 0.00 | 0.01 | 0.00 | 95 | 1017.3 |
| 20260507014539 | 46 | 40 | 0.0 | 0.0 | 0.00 | 0.01 | 0.00 | 95 | 1017.3 |
| 20260507013034 | 47 | 40 | 0.0 | 1.0 | 0.00 | 0.01 | 0.00 | 95 | 1017.3 |
| 20260507011531 | 47 | 40 | 0.0 | 1.0 | 0.00 | 0.01 | 0.00 | 95 | 1017.3 |
| 20260507010027 | 47 | 40 | 0.0 | 2.0 | 0.00 | 0.01 | 0.00 | 95 | 1017.2 |
| 20260507004522 | 47 | 39 | 0.0 | 1.0 | 0.00 | 0.01 | 0.00 | 95 | 1017.2 |
| 20260507003021 | 47 | 94 | 0.0 | 2.0 | 0.00 | 0.01 | 0.00 | 95 | 1017.3 |
| 20260507001525 | 47 | 261 | 0.0 | 0.0 | 0.00 | 0.01 | 0.00 | 95 | 1017.3 |
| 20260507000019 | 47 | 41 | 0.0 | 2.0 | 0.00 | 0.01 | 0.00 | 95 | 1017.2 |
| 20260506234517 | 47 | 45 | 0.0 | 1.0 | 0.00 | 0.01 | 0.00 | 95 | 1017.4 |
| 20260506233017 | 47 | 32 | 0.0 | 2.0 | 0.00 | 0.01 | 0.00 | 95 | 1017.4 |
| 20260506231515 | 47 | 48 | 0.0 | 1.0 | 0.00 | 0.01 | 0.00 | 95 | 1017.3 |
| 20260506230013 | 47 | 38 | 0.0 | 2.0 | 0.00 | 0.01 | 0.00 | 95 | 1017.5 |
| 20260506224513 | 47 | 43 | 0.0 | 0.0 | 0.00 | 0.01 | 0.00 | 95 | 1017.5 |
| 20260506223016 | 47 | 43 | 0.0 | 1.0 | 0.00 | 0.01 | 0.00 | 95 | 1017.6 |
| 20260506221508 | 47 | 43 | 0.0 | 0.0 | 0.00 | 0.01 | 0.00 | 95 | 1017.8 |
| 20260506220007 | 47 | 43 | 0.0 | 0.0 | 0.00 | 0.01 | 0.00 | 95 | 1017.9 |
| 20260506214505 | 48 | 43 | 0.0 | 2.0 | 0.00 | 0.01 | 0.00 | 95 | 1018.0 |
| 20260506213003 | 47 | 38 | 0.0 | 0.0 | 0.00 | 0.01 | 0.00 | 95 | 1017.9 |
| 20260506211558 | 47 | 38 | 0.0 | 0.0 | 0.00 | 0.01 | 0.00 | 95 | 1018.1 |
| 20260506210054 | 47 | 38 | 0.0 | 1.0 | 0.00 | 0.01 | 0.00 | 95 | 1018.2 |
| 20260506204553 | 47 | 36 | 0.0 | 0.0 | 0.00 | 0.01 | 0.01 | 94 | 1018.2 |
| 20260506203053 | 47 | 36 | 0.0 | 0.0 | 0.00 | 0.01 | 0.01 | 94 | 1018.3 |
| 20260506201555 | 48 | 36 | 0.0 | 0.0 | 0.00 | 0.01 | 0.01 | 94 | 1018.3 |
| 20260506200051 | 48 | 36 | 0.0 | 0.0 | 0.00 | 0.01 | 0.01 | 94 | 1018.3 |
| 20260506194552 | 48 | 36 | 0.0 | 0.0 | 0.00 | 0.04 | 0.01 | 94 | 1018.3 |
| 20260506193050 | 48 | 36 | 0.0 | 0.0 | 0.00 | 0.04 | 0.01 | 93 | 1018.1 |
| 20260506191549 | 48 | 36 | 0.0 | 0.0 | 0.00 | 0.04 | 0.01 | 93 | 1018.2 |
| 20260506190052 | 48 | 36 | 0.0 | 0.0 | 0.00 | 0.04 | 0.01 | 93 | 1018.2 |
| 20260506184551 | 49 | 36 | 0.0 | 0.0 | 0.00 | 0.04 | 0.01 | 93 | 1018.1 |
| 20260506183049 | 49 | 311 | 0.0 | 0.0 | 0.00 | 0.04 | 0.01 | 92 | 1018.1 |
| 20260506181545 | 49 | 311 | 0.0 | 0.0 | 0.00 | 0.04 | 0.01 | 92 | 1018.1 |
| 20260506180047 | 49 | 311 | 0.0 | 0.0 | 0.00 | 0.04 | 0.01 | 91 | 1017.9 |
| 20260506174543 | 50 | 311 | 0.0 | 0.0 | 0.00 | 0.04 | 0.01 | 91 | 1017.9 |
| 20260506173115 | 50 | 311 | 0.0 | 0.0 | 0.00 | 0.04 | 0.01 | 90 | 1017.8 |
| 20260506171541 | 50 | 311 | 0.0 | 0.0 | 0.00 | 0.04 | 0.01 | 90 | 1017.7 |
| 20260506170041 | 51 | 311 | 0.0 | 1.0 | 0.00 | 0.04 | 0.01 | 89 | 1017.6 |
| 20260506164541 | 51 | 311 | 0.0 | 0.0 | 0.00 | 0.05 | 0.01 | 88 | 1017.5 |
| 20260506163041 | 52 | 311 | 0.0 | 1.0 | 0.00 | 0.05 | 0.01 | 86 | 1017.5 |
| 20260506161539 | 53 | 320 | 0.0 | 3.0 | 0.00 | 0.05 | 0.01 | 84 | 1017.3 |
| 20260506160038 | 55 | 255 | 0.0 | 2.0 | 0.00 | 0.05 | 0.01 | 83 | 1017.4 |
| 20260506154537 | 55 | 299 | 0.0 | 4.0 | 0.00 | 0.05 | 0.01 | 82 | 1017.3 |
| 20260506153038 | 56 | 245 | 1.0 | 4.0 | 0.00 | 0.05 | 0.01 | 80 | 1017.1 |
| 20260506151536 | 56 | 255 | 0.0 | 4.0 | 0.00 | 0.05 | 0.01 | 80 | 1017.1 |
| 20260506150036 | 57 | 255 | 1.0 | 6.0 | 0.00 | 0.05 | 0.01 | 78 | 1017.0 |
| 20260506144539 | 58 | 289 | 0.0 | 4.0 | 0.00 | 0.05 | 0.01 | 77 | 1017.1 |
| 20260506143037 | 57 | 272 | 1.0 | 6.0 | 0.00 | 0.05 | 0.01 | 76 | 1017.1 |
| 20260506141534 | 57 | 245 | 0.0 | 7.0 | 0.00 | 0.05 | 0.01 | 75 | 1017.3 |
| 20260506140031 | 57 | 307 | 1.0 | 6.0 | 0.00 | 0.05 | 0.01 | 76 | 1017.3 |
| 20260506134530 | 57 | 318 | 0.0 | 7.0 | 0.00 | 0.06 | 0.01 | 75 | 1017.4 |
| 20260506133030 | 57 | 311 | 2.0 | 10.0 | 0.00 | 0.06 | 0.01 | 75 | 1017.5 |
| 20260506131532 | 57 | 331 | 3.0 | 7.0 | 0.00 | 0.06 | 0.01 | 75 | 1017.6 |
| 20260506130029 | 56 | 250 | 1.0 | 9.0 | 0.00 | 0.06 | 0.01 | 77 | 1017.8 |
| 20260506124526 | 57 | 250 | 1.0 | 12.0 | 0.00 | 0.06 | 0.01 | 76 | 1017.9 |
| 20260506123026 | 57 | 272 | 3.0 | 9.0 | 0.00 | 0.06 | 0.01 | 76 | 1018.0 |
| 20260506121522 | 56 | 250 | 1.0 | 9.0 | 0.00 | 0.06 | 0.01 | 78 | 1017.9 |
| 20260506120020 | 55 | 331 | 1.0 | 7.0 | 0.00 | 0.06 | 0.01 | 80 | 1018.0 |
| 20260506114519 | 55 | 329 | 2.0 | 5.0 | 0.00 | 0.17 | 0.01 | 79 | 1018.1 |
| 20260506113019 | 55 | 296 | 3.0 | 7.0 | 0.00 | 0.17 | 0.01 | 80 | 1018.2 |
| 20260506111521 | 55 | 285 | 1.0 | 5.0 | 0.00 | 0.17 | 0.01 | 78 | 1018.4 |
| 20260506110021 | 55 | 220 | 1.0 | 6.0 | 0.00 | 0.17 | 0.01 | 79 | 1018.5 |
| 20260506104515 | 55 | 245 | 2.0 | 6.0 | 0.00 | 0.17 | 0.01 | 80 | 1018.6 |
| 20260506103014 | 55 | 276 | 2.0 | 4.0 | 0.00 | 0.17 | 0.01 | 79 | 1018.7 |
| 20260506101521 | 54 | 245 | 0.0 | 4.0 | 0.00 | 0.17 | 0.01 | 80 | 1018.7 |
| 20260506100009 | 54 | 238 | 3.0 | 9.0 | 0.00 | 0.17 | 0.01 | 83 | 1018.9 |
| 20260506094520 | 53 | 292 | 2.0 | 7.0 | 0.00 | 0.22 | 0.01 | 82 | 1018.8 |
| 20260506093014 | 53 | 267 | 2.0 | 7.0 | 0.00 | 0.22 | 0.01 | 82 | 1018.9 |
| 20260506091507 | 52 | 291 | 3.0 | 9.0 | 0.01 | 0.22 | 0.01 | 81 | 1018.8 |
| 20260506090005 | 53 | 274 | 3.0 | 8.0 | 0.01 | 0.22 | 0.01 | 81 | 1018.7 |
| 20260506084506 | 53 | 245 | 1.0 | 7.0 | 0.01 | 0.28 | 0.01 | 82 | 1018.8 |
| 20260506083004 | 53 | 299 | 2.0 | 5.0 | 0.01 | 0.28 | 0.01 | 83 | 1018.8 |
| 20260506081503 | 53 | 323 | 3.0 | 8.0 | 0.00 | 0.28 | 0.00 | 83 | 1018.9 |
| 20260506073059 | 52 | 223 | 0.0 | 8.0 | 0.00 | 0.39 | 0.00 | 81 | 1018.7 |
| 20260506071600 | 52 | 232 | 0.0 | 5.0 | 0.00 | 0.39 | 0.00 | 83 | 1018.7 |